• în România
  • Lista ţărilor
  • Pe 7 zile
  • Temperatura apei
  • Hartă satelitară
  • Meteo pe hartă
  • Widget-uri
  • user-avatar
    Intrare

    Meteo pe oră la Coro

    Astăzi, 23 Mai, Miercuri

    Timp Temperatura Precipitaţii Vânt Presiune Umiditate
    00:00 +28°C° 0 mm 7 m/s 756 mmHg 81%
    01:00 +28°C° 0 mm 7 m/s 756 mmHg 82%
    02:00 +28°C° 0 mm 7 m/s 756 mmHg 82%
    03:00 +28°C° 0 mm 7 m/s 756 mmHg 82%
    04:00 +28°C° 0 mm 7 m/s 756 mmHg 83%
    05:00 +28°C° 0 mm 7 m/s 756 mmHg 80%
    06:00 +29°C° 0 mm 7 m/s 757 mmHg 78%
    07:00 +29°C° 0 mm 7 m/s 757 mmHg 75%
    08:00 +32°C° 0 mm 7 m/s 757 mmHg 67%
    09:00 +34°C° 0 mm 7 m/s 757 mmHg 59%
    10:00 +36°C° 0 mm 7 m/s 757 mmHg 51%
    11:00 +37°C° 0 mm 8 m/s 757 mmHg 48%
    12:00 +38°C° 0 mm 8 m/s 756 mmHg 44%
    13:00 +39°C° 0 mm 8 m/s 756 mmHg 41%
    14:00 +39°C° 0 mm 8 m/s 755 mmHg 42%
    15:00 +38°C° 0 mm 8 m/s 755 mmHg 43%
    16:00 +38°C° 0 mm 8 m/s 755 mmHg 44%
    17:00 +35°C° 0 mm 8 m/s 755 mmHg 52%
    18:00 +33°C° 0 mm 8 m/s 755 mmHg 59%
    19:00 +32°C° 0 mm 8 m/s 756 mmHg 66%
    20:00 +30°C° 0 mm 7 m/s 756 mmHg 71%
    21:00 +29°C° 0 mm 7 m/s 757 mmHg 77%
    22:00 +28°C° 0 mm 7 m/s 757 mmHg 82%
    23:00 +28°C° 0 mm 7 m/s 757 mmHg 82%

    Mâine, 24 Mai, Joi

    Timp Temperatura Precipitaţii Vânt Presiune Umiditate
    00:00 +28°C° 0 mm 6 m/s 757 mmHg 82%
    01:00 +28°C° 0 mm 6 m/s 756 mmHg 82%
    02:00 +28°C° 0 mm 6 m/s 756 mmHg 82%
    03:00 +28°C° 0 mm 6 m/s 756 mmHg 82%
    04:00 +28°C° 0 mm 6 m/s 756 mmHg 83%
    05:00 +28°C° 0 mm 6 m/s 756 mmHg 80%
    06:00 +29°C° 0 mm 6 m/s 757 mmHg 78%
    07:00 +29°C° 0 mm 6 m/s 757 mmHg 76%
    08:00 +32°C° 0 mm 7 m/s 757 mmHg 68%
    09:00 +33°C° 0 mm 7 m/s 757 mmHg 61%
    10:00 +35°C° 0 mm 7 m/s 758 mmHg 54%
    11:00 +35°C° 0,1 mm 7 m/s 757 mmHg 54%
    12:00 +36°C° 0,1 mm 7 m/s 756 mmHg 53%
    13:00 +37°C° 0,1 mm 8 m/s 756 mmHg 53%
    14:00 +35°C° 0,2 mm 8 m/s 755 mmHg 55%
    15:00 +35°C° 0,2 mm 8 m/s 755 mmHg 58%
    16:00 +34°C° 0,2 mm 8 m/s 754 mmHg 60%
    17:00 +33°C° 0 mm 7 m/s 755 mmHg 65%
    18:00 +32°C° 0 mm 7 m/s 755 mmHg 70%
    19:00 +29°C° 0 mm 7 m/s 756 mmHg 74%
    20:00 +29°C° 0 mm 7 m/s 756 mmHg 77%
    21:00 +29°C° 0 mm 6 m/s 756 mmHg 79%
    22:00 +28°C° 0 mm 6 m/s 757 mmHg 82%
    23:00 +28°C° 0 mm 6 m/s 756 mmHg 82%

    Poimâine, 25 Mai, Vineri

    Timp Temperatura Precipitaţii Vânt Presiune Umiditate
    00:00 +28°C° 0 mm 6 m/s 756 mmHg 82%
    01:00 +28°C° 0 mm 6 m/s 756 mmHg 83%
    02:00 +28°C° 0 mm 6 m/s 755 mmHg 82%
    03:00 +28°C° 0 mm 6 m/s 755 mmHg 82%
    04:00 +28°C° 0 mm 6 m/s 755 mmHg 82%
    05:00 +28°C° 0 mm 6 m/s 755 mmHg 80%
    06:00 +29°C° 0 mm 7 m/s 756 mmHg 79%
    07:00 +29°C° 0 mm 7 m/s 756 mmHg 77%
    08:00 +30°C° 0 mm 7 m/s 756 mmHg 71%
    09:00 +33°C° 0 mm 7 m/s 756 mmHg 65%
    10:00 +34°C° 0 mm 7 m/s 756 mmHg 58%
    11:00 +36°C° 0 mm 7 m/s 756 mmHg 54%
    12:00 +38°C° 0 mm 7 m/s 755 mmHg 50%
    13:00 +39°C° 0 mm 8 m/s 754 mmHg 45%
    14:00 +38°C° 0 mm 8 m/s 754 mmHg 46%
    15:00 +38°C° 0 mm 8 m/s 753 mmHg 47%
    16:00 +38°C° 0 mm 8 m/s 753 mmHg 48%
    17:00 +35°C° 0 mm 7 m/s 753 mmHg 55%
    18:00 +33°C° 0 mm 7 m/s 754 mmHg 61%
    19:00 +32°C° 0 mm 7 m/s 754 mmHg 68%
    20:00 +30°C° 0 mm 7 m/s 755 mmHg 72%
    21:00 +29°C° 0 mm 7 m/s 755 mmHg 76%
    22:00 +28°C° 0 mm 6 m/s 756 mmHg 80%
    23:00 +28°C° 0 mm 6 m/s 755 mmHg 81%

    26 Mai, Sâmbătă

    Timp Temperatura Precipitaţii Vânt Presiune Umiditate
    00:00 +28°C° 0 mm 6 m/s 755 mmHg 82%
    01:00 +28°C° 0 mm 6 m/s 755 mmHg 83%
    02:00 +28°C° 0 mm 6 m/s 755 mmHg 84%
    03:00 +28°C° 0 mm 6 m/s 755 mmHg 84%
    04:00 +27°C° 0 mm 6 m/s 755 mmHg 85%
    05:00 +28°C° 0 mm 6 m/s 755 mmHg 82%
    06:00 +28°C° 0 mm 6 m/s 755 mmHg 79%
    07:00 +29°C° 0 mm 6 m/s 756 mmHg 76%
    08:00 +32°C° 0 mm 6 m/s 756 mmHg 68%
    09:00 +33°C° 0 mm 6 m/s 756 mmHg 61%
    10:00 +35°C° 0 mm 5 m/s 756 mmHg 53%
    11:00 +36°C° 0 mm 6 m/s 755 mmHg 51%
    12:00 +36°C° 0 mm 6 m/s 755 mmHg 49%
    13:00 +38°C° 0 mm 6 m/s 754 mmHg 47%
    14:00 +36°C° 0 mm 6 m/s 754 mmHg 50%
    15:00 +35°C° 0 mm 6 m/s 754 mmHg 53%
    16:00 +35°C° 0 mm 6 m/s 753 mmHg 56%
    17:00 +33°C° 0,3 mm 6 m/s 754 mmHg 63%
    18:00 +32°C° 0,3 mm 6 m/s 755 mmHg 71%
    19:00 +29°C° 0,3 mm 6 m/s 755 mmHg 78%
    20:00 +29°C° 0,1 mm 6 m/s 755 mmHg 80%
    21:00 +28°C° 0,1 mm 6 m/s 756 mmHg 82%
    22:00 +28°C° 0,1 mm 6 m/s 756 mmHg 84%
    23:00 +28°C° 0 mm 6 m/s 756 mmHg 84%

    27 Mai, Duminică

    Timp Temperatura Precipitaţii Vânt Presiune Umiditate
    00:00 +28°C° 0 mm 6 m/s 755 mmHg 84%
    01:00 +28°C° 0 mm 6 m/s 755 mmHg 84%
    02:00 +28°C° 0 mm 6 m/s 755 mmHg 84%
    03:00 +28°C° 0 mm 6 m/s 755 mmHg 84%
    04:00 +28°C° 0 mm 6 m/s 755 mmHg 84%
    05:00 +28°C° 0 mm 6 m/s 755 mmHg 82%
    06:00 +29°C° 0 mm 6 m/s 755 mmHg 79%
    07:00 +29°C° 0 mm 6 m/s 756 mmHg 77%
    08:00 +32°C° 0 mm 6 m/s 756 mmHg 68%
    09:00 +34°C° 0 mm 5 m/s 756 mmHg 60%
    10:00 +36°C° 0 mm 5 m/s 756 mmHg 51%
    11:00 +36°C° 0 mm 6 m/s 755 mmHg 49%
    12:00 +38°C° 0 mm 6 m/s 755 mmHg 46%
    13:00 +39°C° 0 mm 7 m/s 754 mmHg 43%
    14:00 +38°C° 0 mm 7 m/s 754 mmHg 46%
    15:00 +38°C° 0 mm 7 m/s 754 mmHg 48%
    16:00 +36°C° 0 mm 7 m/s 753 mmHg 51%
    17:00 +35°C° 0 mm 7 m/s 754 mmHg 58%
    18:00 +33°C° 0 mm 7 m/s 754 mmHg 65%
    19:00 +30°C° 0 mm 7 m/s 755 mmHg 72%
    20:00 +30°C° 0 mm 7 m/s 755 mmHg 76%
    21:00 +29°C° 0 mm 7 m/s 756 mmHg 79%
    22:00 +28°C° 0 mm 6 m/s 756 mmHg 83%
    23:00 +28°C° 0 mm 6 m/s 756 mmHg 83%

    28 Mai, Luni

    Timp Temperatura Precipitaţii Vânt Presiune Umiditate
    00:00 +28°C° 0 mm 6 m/s 756 mmHg 83%
    01:00 +28°C° 0 mm 6 m/s 755 mmHg 84%
    02:00 +28°C° 0 mm 6 m/s 755 mmHg 84%
    03:00 +28°C° 0 mm 6 m/s 755 mmHg 84%
    04:00 +28°C° 0 mm 6 m/s 755 mmHg 84%
    05:00 +29°C° 0 mm 6 m/s 755 mmHg 81%
    06:00 +29°C° 0 mm 6 m/s 756 mmHg 78%
    07:00 +30°C° 0 mm 6 m/s 756 mmHg 76%
    08:00 +32°C° 0 mm 6 m/s 756 mmHg 67%
    09:00 +34°C° 0 mm 6 m/s 756 mmHg 59%
    10:00 +36°C° 0 mm 6 m/s 756 mmHg 50%
    11:00 +38°C° 0 mm 7 m/s 756 mmHg 47%
    12:00 +39°C° 0 mm 7 m/s 755 mmHg 45%
    13:00 +39°C° 0 mm 8 m/s 755 mmHg 42%
    14:00 +39°C° 0 mm 8 m/s 754 mmHg 45%
    15:00 +38°C° 0 mm 8 m/s 754 mmHg 47%
    16:00 +37°C° 0 mm 8 m/s 754 mmHg 50%
    17:00 +34°C° 0 mm 8 m/s 754 mmHg 57%
    18:00 +33°C° 0 mm 7 m/s 755 mmHg 64%
    19:00 +30°C° 0 mm 7 m/s 755 mmHg 71%
    20:00 +29°C° 0 mm 7 m/s 756 mmHg 75%
    21:00 +29°C° 0 mm 6 m/s 756 mmHg 79%
    22:00 +28°C° 0 mm 6 m/s 756 mmHg 83%
    23:00 +28°C° 0 mm 6 m/s 756 mmHg 83%
    Arată mai mult